Location: Anankanda
(14.7841°N, 3.0348°W)
Time: 00:44:29
(UTC+00:00)

H-2A R/B - Pass Details

Date: 17 January 2021
Orbit: 734 x 836 km, 98.2° (Epoch: 07 March)

Event Time Altitude Azimuth Distance (km) Brightness Sun altitude
Rises 19:34:46 0° 176° (S) 3,150 5.3 -21.8°
Reaches altitude 10° 19:37:04 10° 180° (S) 2,227 4.6 -22.3°
Maximum altitude 19:41:52 58° 259° (WSW) 849 2.4 -23.4°
Drops below altitude 10° 19:46:43 10° 338° (NNW) 2,248 4.5 -24.5°
Sets 19:49:03 0° 342° (NNW) 3,182 5.2 -25.1°
